Ephrata, WA

10:38 PM PST on December 03, 2016 (GMT -0800)
Ephrata Municipal

Weather History for KEPH - November, 2012

Change the Weather History Date:

Thursday, November 8, 2012

  Actual Average Record
Temperature  
Mean Temperature 41 °F 40 °F  
Max Temperature 49 °F 49 °F 66 °F (1995)
Min Temperature 32 °F 31 °F 20 °F (1985)
Degree Days  
Heating Degree Days 24 25  
Month to date heating degree days 134 187  
Since 1 July heating degree days 629 768  
Cooling Degree Days 0 0  
Month to date cooling degree days 0 0  
Year to date cooling degree days 837 772  
Moisture  
Dew Point 29 °F    
Average Humidity 67    
Maximum Humidity 89    
Minimum Humidity 45    
Precipitation  
Precipitation 0.01 in 0.03 in 0.64 in (1968)
Month to date precipitation 0.06 0.24  
Year to date precipitation 5.92 5.79  
Sea Level Pressure  
Sea Level Pressure 29.81 in    
Wind  
Wind Speed 10 mph (North)    
Max Wind Speed 21 mph    
Max Gust Speed 24 mph    
Visibility 10 miles    
Events Rain    
T = Trace of Precipitation, MM = Missing Value Source: NWS Daily Summary

Daily Weather History Graph

Daily Weather History Graph

Search for Another Location

Airport or City:

Trip Planner

Search our weather history database for the weather conditions in past years. The results will help you decide how hot, cold, wet, or windy it might be!

Date:

Astronomy

Nov. 08, 2012 Rise Set
Actual Time 6:52 AM PST 4:30 PM PST
Civil Twilight 6:20 AM PST 5:03 PM PST
Nautical Twilight 5:43 AM PST 5:39 PM PST
Astronomical Twilight 5:07 AM PST 6:15 PM PST
Moon 12:30 AM PST (11/8) 1:34 PM PST (11/8)
Length of Visible Light 10h 42m
Length of Day
9h 37m
Waning Crescent, 32% of the Moon is Illuminated
Nov 8
Waning Crescent
Nov 13
New
Nov 20
First Quarter
Nov 28
Full
Dec 6
Last Quarter

Hourly Weather History & Observations

Time (PST) Temp. Windchill Dew Point Humidity Pressure Visibility Wind Dir Wind Speed Gust Speed Precip Events Conditions
12:53 AM 36.0 °F 29.6 °F 28.0 °F 73% 29.94 in 10.0 mi NNW 8.1 mph - N/A   Overcast
1:53 AM 37.0 °F 31.6 °F 27.0 °F 67% 29.92 in 10.0 mi Variable 6.9 mph - N/A   Mostly Cloudy
2:53 AM 32.0 °F 23.6 °F 26.1 °F 79% 29.92 in 10.0 mi North 10.4 mph - N/A   Mostly Cloudy
3:53 AM 35.1 °F 27.4 °F 28.9 °F 78% 29.90 in 10.0 mi North 10.4 mph - 0.01 in Rain Light Rain
4:53 AM 36.0 °F 28.0 °F 30.0 °F 79% 29.89 in 10.0 mi North 11.5 mph - 0.00 in   Overcast
5:53 AM 35.1 °F 28.6 °F 30.0 °F 82% 29.88 in 10.0 mi North 8.1 mph - N/A   Overcast
6:53 AM 35.1 °F 28.6 °F 28.9 °F 78% 29.86 in 10.0 mi NNW 8.1 mph - N/A   Mostly Cloudy
7:53 AM 35.1 °F 30.1 °F 27.0 °F 72% 29.85 in 10.0 mi NW 5.8 mph - N/A   Clear
8:53 AM 39.0 °F 29.9 °F 28.0 °F 65% 29.82 in 10.0 mi NNW 17.3 mph - N/A   Partly Cloudy
9:53 AM 42.1 °F 34.5 °F 28.0 °F 58% 29.81 in 10.0 mi NNW 15.0 mph - N/A   Mostly Cloudy
10:53 AM 46.0 °F 39.6 °F 28.9 °F 51% 29.78 in 10.0 mi NNW 15.0 mph - N/A   Mostly Cloudy
11:53 AM 46.9 °F - 28.0 °F 48% 29.76 in 10.0 mi North 16.1 mph - N/A   Mostly Cloudy
12:53 PM 46.9 °F - 28.0 °F 48% 29.75 in 10.0 mi North 15.0 mph - N/A   Overcast
1:53 PM 48.0 °F - 28.0 °F 46% 29.74 in 10.0 mi North 12.7 mph - N/A   Overcast
2:53 PM 46.9 °F - 27.0 °F 46% 29.74 in 10.0 mi North 11.5 mph - N/A   Overcast
3:53 PM 46.0 °F 39.9 °F 27.0 °F 47% 29.75 in 10.0 mi North 13.8 mph - N/A   Overcast
4:53 PM 44.1 °F 37.4 °F 28.0 °F 53% 29.74 in 10.0 mi NNW 13.8 mph - 0.00 in   Overcast
5:53 PM 43.0 °F 36.8 °F 28.9 °F 58% 29.75 in 10.0 mi North 11.5 mph - N/A   Overcast
6:53 PM 42.1 °F 33.9 °F 32.0 °F 67% 29.76 in 10.0 mi NE 17.3 mph 21.9 mph 0.00 in   Overcast
7:53 PM 39.9 °F 37.8 °F 33.1 °F 77% 29.77 in 10.0 mi NNE 3.5 mph - 0.00 in   Overcast
8:53 PM 37.9 °F 34.4 °F 33.1 °F 83% 29.78 in 10.0 mi NE 4.6 mph - N/A   Overcast
9:53 PM 35.1 °F 29.3 °F 32.0 °F 89% 29.77 in 10.0 mi ENE 6.9 mph - N/A   Partly Cloudy
10:53 PM 33.1 °F 28.7 °F 30.9 °F 92% 29.78 in 6.0 mi West 4.6 mph - N/A   Clear
11:53 PM 34.0 °F - 30.9 °F 89% 29.78 in 10.0 mi Calm Calm - N/A   Overcast